sat.trackr.live / text

‹ back to catalog

STARLINK-34284

NORAD 64212 · 2025-117K

PAYLOAD ACTIVE UNKNOWN

§ Identity

Operator
Country
US
Launch date
2025-05-31
Launch site
AFWTR
Launch vehicle
Mass (kg)
RCS (m²)

Purposes: comms

External: N2YO · Heavens-Above · Gunter

§ Orbital elements

Epoch: 2026-05-25T00:02:05.822592Z

Period
94.11 min
Inclination
53.1588°
Eccentricity
0.0001266
Mean motion
15.30196047 rev/d
Perigee alt
474.4 km
Apogee alt
476.1 km
Semi-major
6,853.4 km
B*
4.9098e-4
RAAN
44.8407°
Arg perigee
68.0008°
Mean anomaly
292.1127°
Rev number
5,621

§ Raw data

STARLINK-342841 64212U 25117K   26145.00145628  .00014208  00000+0  49098-3 0  99922 64212  53.1588  44.8407 0001266  68.0008 292.1127 15.30196047 56215

JSON: /api/v1/satellites/64212 · /tle

For live sub-satellite position, see the globe view (requires WebGL).

§ Visibility from observer

Set your observer location to see the next 7 days of passes ≥ 10°. The values pass through the URL so the page stays shareable.

No JS? Fill the form by hand. The geolocation button needs JavaScript.